Home   Weather   Konstanz   Past weeks

Flag for Germany Past Weather in Konstanz, Baden-Württemberg, Germany — Yesterday and Last 2 Weeks

Now
70 °F

Sunny.


Feels Like: 70 °F
Forecast: 48 / 70 °F
Wind: 2 mph from North

Location: Friedrichshafen Airport

Current Time: Aug 20, 2017 at 7:16:34 pm

Latest Report: Aug 20, 2017 at 6:20 pm


Visibility: 10 mi

Pressure: 30.24 "Hg

Humidity: 43%

Dew Point: 46 °F

Location of KonstanzLocation

Past Weather in Konstanz — Graph

°F

Konstanz Temperature Yesterday

Maximum temperature yesterday: 70 °F (at 3:50 pm)
Minimum temperature yesterday: 59 °F (at 10:50 pm)
Average temperature yesterday: 64 °F

High & Low Weather Summary for the Past Weeks

 TemperatureHumidityPressure
High86 °F (Aug 18, 4:20 pm)100% (Aug 7, 4:50 am)30.27 "Hg (Aug 7, 4:50 am)
Low52 °F (Aug 7, 4:50 am)40% (Aug 20, 5:50 pm)29.86 "Hg (Aug 8, 6:50 am)
Average65 °F80%30.10 "Hg
* Reported Aug 5 5:20 pm — Aug 20 5:50 pm, Konstanz. Weather by CustomWeather, © 2017

Note: Actual official high and low records may vary slightly from our data, if they occured in-between our weather recording intervals... More about our weather records

Advertising

Konstanz Weather History for the Previous 24 Hours

Scroll right to see more
 ConditionsComfort  
Time TempWeatherWind HumidityBarometerVisibility
5:50 pm
Sun, Aug 20
70 °FPassing clouds.3 mph40%30.24 "HgN/A
5:20 pm68 °FScattered clouds.6 mph46%30.24 "HgN/A
4:50 pm70 °FPassing clouds.8 mph46%30.24 "HgN/A
4:20 pm68 °FPassing clouds.9 mph46%30.24 "HgN/A
3:50 pm68 °FPassing clouds.8 mph49%30.24 "HgN/A
3:20 pm68 °FPassing clouds.5 mph46%30.24 "HgN/A
2:50 pm68 °FPassing clouds.7 mph43%30.24 "HgN/A
2:20 pm68 °FSunny.8 mph49%30.24 "Hg10 mi
1:50 pm66 °FPassing clouds.7 mph52%30.24 "HgN/A
1:20 pm68 °FSunny.5 mph56%30.24 "Hg10 mi
12:50 pm66 °FPassing clouds.3 mph60%30.27 "HgN/A
12:20 pm64 °FScattered clouds.5 mph60%30.27 "HgN/A
11:50 am66 °FScattered clouds.3 mph56%30.27 "HgN/A
11:20 am64 °FScattered clouds.2 mph56%30.27 "HgN/A
10:50 am63 °FScattered clouds.2 mph59%30.27 "HgN/A
10:20 am63 °FPassing clouds.3 mph64%30.27 "HgN/A
9:50 am63 °FSunny.2 mph73%30.27 "Hg10 mi
9:20 am61 °FSunny.2 mph72%30.24 "Hg10 mi
8:50 am59 °FPassing clouds.3 mph88%30.24 "HgN/A
8:20 am57 °FPassing clouds.2 mph88%30.24 "HgN/A
7:50 am57 °FPartly sunny.No wind82%30.24 "HgN/A
7:20 am54 °FPassing clouds.3 mph100%30.24 "HgN/A
6:50 am54 °FScattered clouds.2 mph94%30.24 "HgN/A
6:20 am54 °FPassing clouds.3 mph94%30.24 "HgN/A
5:50 am54 °FPartly cloudy.3 mph100%30.24 "HgN/A
5:20 am55 °FPassing clouds.1 mph94%30.21 "HgN/A
4:50 am55 °FPassing clouds.3 mph94%30.21 "HgN/A
4:20 am55 °FPassing clouds.2 mph94%30.21 "HgN/A
3:50 am55 °FPassing clouds.2 mph94%30.21 "HgN/A
3:20 am55 °FPassing clouds.2 mph94%30.21 "HgN/A
2:50 am55 °FPartly cloudy.3 mph94%30.21 "HgN/A
2:20 am57 °FPartly cloudy.No wind88%30.21 "HgN/A
1:50 am57 °FPassing clouds.3 mph88%30.21 "HgN/A
1:20 am57 °FPassing clouds.3 mph88%30.21 "HgN/A
12:50 am57 °FPartly cloudy.2 mph94%30.21 "HgN/A
12:20 am59 °FPartly cloudy.2 mph88%30.21 "HgN/A
11:50 pm
Sat, Aug 19
59 °FPassing clouds.2 mph94%30.21 "HgN/A
11:20 pm59 °FPassing clouds.No wind94%30.21 "HgN/A
10:50 pm59 °FPassing clouds.3 mph88%30.18 "HgN/A
10:20 pm61 °FCool.2 mph88%30.18 "HgN/A
9:50 pm61 °FPassing clouds.2 mph88%30.18 "HgN/A
9:20 pm61 °FThundershowers. Passing clouds.3 mph88%30.15 "HgN/A
8:50 pm63 °FThundershowers. Passing clouds.3 mph83%30.15 "HgN/A
8:32 pm64 °FSprinkles. Passing clouds.3 mph78%30.15 "HgN/A
7:50 pm66 °FScattered clouds.5 mph73%30.12 "HgN/A
7:20 pm68 °FPassing clouds.3 mph69%30.12 "HgN/A
Weather by CustomWeather, © 2017

See weather overviewHow to use our weather pages